{"data":{"norad_id":63782,"intl_designator":"2025-091H","name":"STARLINK-33842","alt_names":[],"object_type":"PAYLOAD","status":"ACTIVE","operator":null,"country":"US","launch_date":"2025-05-02","launch_site_code":"AFETR","launch_vehicle":null,"mission":null,"orbit_class":"UNKNOWN","rcs_meters":null,"size_class":null,"mass_kg":null,"dimensions":null,"purposes":["comms"],"wikipedia_slug":null,"has_3d_model":false,"image_url":null,"decayed_at":null,"tle_current":{"epoch":"2026-05-24T22:35:08.662272Z","epoch_age_seconds":70382,"freshness":"FRESH","line1":"1 63782U 25091H   26144.94107248  .00009764  00000+0  36375-3 0  9997","line2":"2 63782  43.0025 341.9204 0001663 262.1029  97.9634 15.27591436 60651","mean_motion":15.27591436,"eccentricity":0.0001663,"inclination_deg":43.0025,"raan_deg":341.9204,"arg_perigee_deg":262.1029,"mean_anomaly_deg":97.9634,"bstar":0.00036375,"rev_number":6065,"period_min":94.26604300497,"perigee_km":481.87384320209,"apogee_km":484.15586230832,"semimajor_km":6861.1518527552,"source":"CELESTRAK","updated_at":"2026-05-25T13:38:20.134415Z"}}}